Year,Month,Day,Hour,Minute,Value (Times are PST for temperature in C)
2022,10,01,00,00,12.00
2022,10,01,00,01,12.00
2022,10,01,00,02,12.00
2022,10,01,00,03,12.00
2022,10,01,00,04,12.10
2022,10,01,00,05,12.10
2022,10,01,00,06,12.10
2022,10,01,00,07,12.10
2022,10,01,00,08,12.10
2022,10,01,00,09,12.10
2022,10,01,00,10,12.10
2022,10,01,00,11,12.10
2022,10,01,00,12,12.10
2022,10,01,00,13,12.10
2022,10,01,00,14,12.10
2022,10,01,00,15,12.10
2022,10,01,00,16,12.10
2022,10,01,00,17,12.10
2022,10,01,00,18,12.20
2022,10,01,00,19,12.10
2022,10,01,00,20,12.10
2022,10,01,00,21,12.10
2022,10,01,00,22,12.10
2022,10,01,00,23,12.10
2022,10,01,00,24,12.10
2022,10,01,00,25,12.10
2022,10,01,00,26,12.10
2022,10,01,00,27,12.10
2022,10,01,00,28,12.10
2022,10,01,00,29,12.10
2022,10,01,00,30,12.10
2022,10,01,00,31,12.10
2022,10,01,00,32,12.10
2022,10,01,00,33,12.00
2022,10,01,00,34,12.00
2022,10,01,00,35,12.00
2022,10,01,00,36,12.00
2022,10,01,00,37,12.00
2022,10,01,00,38,12.00
2022,10,01,00,39,12.00
2022,10,01,00,40,12.00
2022,10,01,00,41,12.00
2022,10,01,00,42,12.00
2022,10,01,00,43,11.90
2022,10,01,00,44,11.90
2022,10,01,00,45,11.90
2022,10,01,00,46,11.90
2022,10,01,00,47,11.90
2022,10,01,00,48,11.90
2022,10,01,00,49,11.90
2022,10,01,00,50,11.90
2022,10,01,00,51,11.90
2022,10,01,00,52,11.90
2022,10,01,00,53,11.90
2022,10,01,00,54,11.90
2022,10,01,00,55,11.90
2022,10,01,00,56,11.90
2022,10,01,00,57,11.90
2022,10,01,00,58,11.90
2022,10,01,00,59,11.90
2022,10,01,01,00,11.90
2022,10,01,01,01,11.90
2022,10,01,01,02,11.90
2022,10,01,01,03,11.90
2022,10,01,01,04,11.80
2022,10,01,01,05,11.80
2022,10,01,01,06,11.80
2022,10,01,01,07,11.80
2022,10,01,01,08,11.80
2022,10,01,01,09,11.80
2022,10,01,01,10,11.80
2022,10,01,01,11,11.80
2022,10,01,01,12,11.80
2022,10,01,01,13,11.70
2022,10,01,01,14,11.70
2022,10,01,01,15,11.70
2022,10,01,01,16,11.70
2022,10,01,01,17,11.70
2022,10,01,01,18,11.70
2022,10,01,01,19,11.80
2022,10,01,01,20,11.70
2022,10,01,01,21,11.70
2022,10,01,01,22,11.70
2022,10,01,01,23,11.70
2022,10,01,01,24,11.70
2022,10,01,01,25,11.70
2022,10,01,01,26,11.70
2022,10,01,01,27,11.60
2022,10,01,01,28,11.60
2022,10,01,01,29,11.60
2022,10,01,01,30,11.60
2022,10,01,01,31,11.60
2022,10,01,01,32,11.60
2022,10,01,01,33,11.60
2022,10,01,01,34,11.60
2022,10,01,01,35,11.60
2022,10,01,01,36,11.60
2022,10,01,01,37,11.60
2022,10,01,01,38,11.60
2022,10,01,01,39,11.60
2022,10,01,01,40,11.60
2022,10,01,01,41,11.60
2022,10,01,01,42,11.60
2022,10,01,01,43,11.60
2022,10,01,01,44,11.60
2022,10,01,01,45,11.50
2022,10,01,01,46,11.50
2022,10,01,01,47,11.50
2022,10,01,01,48,11.50
2022,10,01,01,49,11.50
2022,10,01,01,50,11.40
2022,10,01,01,51,11.40
2022,10,01,01,52,11.40
2022,10,01,01,53,11.40
2022,10,01,01,54,11.40
2022,10,01,01,55,11.40
2022,10,01,01,56,11.40
2022,10,01,01,57,11.40
2022,10,01,01,58,11.40
2022,10,01,01,59,11.40
2022,10,01,02,00,11.40
2022,10,01,02,01,11.40
2022,10,01,02,02,11.40
2022,10,01,02,03,11.40
2022,10,01,02,04,11.40
2022,10,01,02,05,11.40
2022,10,01,02,06,11.40
2022,10,01,02,07,11.40
2022,10,01,02,08,11.40
2022,10,01,02,09,11.40
2022,10,01,02,10,11.50
2022,10,01,02,11,11.60
2022,10,01,02,12,11.60
2022,10,01,02,13,11.70
2022,10,01,02,14,11.70
2022,10,01,02,15,11.70
2022,10,01,02,16,11.80
2022,10,01,02,17,11.80
2022,10,01,02,18,11.80
2022,10,01,02,19,11.90
2022,10,01,02,20,11.90
2022,10,01,02,21,11.90
2022,10,01,02,22,11.90
2022,10,01,02,23,11.90
2022,10,01,02,24,12.00
2022,10,01,02,25,12.00
2022,10,01,02,26,12.00
2022,10,01,02,27,12.10
2022,10,01,02,28,12.10
2022,10,01,02,29,12.10
2022,10,01,02,30,12.20
2022,10,01,02,31,12.20
2022,10,01,02,32,12.20
2022,10,01,02,33,12.20
2022,10,01,02,34,12.30
2022,10,01,02,35,12.30
2022,10,01,02,36,12.30
2022,10,01,02,37,12.40
2022,10,01,02,38,12.40
2022,10,01,02,39,12.40
2022,10,01,02,40,12.50
2022,10,01,02,41,12.50
2022,10,01,02,42,12.50
2022,10,01,02,43,12.50
2022,10,01,02,44,12.60
2022,10,01,02,45,12.60
2022,10,01,02,46,12.60
2022,10,01,02,47,12.60
2022,10,01,02,48,12.60
2022,10,01,02,49,12.60
2022,10,01,02,50,12.60
2022,10,01,02,51,12.60
2022,10,01,02,52,12.60
2022,10,01,02,53,12.70
2022,10,01,02,54,12.70
2022,10,01,02,55,12.80
2022,10,01,02,56,12.80
2022,10,01,02,57,12.80
2022,10,01,02,58,12.80
2022,10,01,02,59,12.90
2022,10,01,03,00,13.00
2022,10,01,03,01,13.10
2022,10,01,03,02,13.10
2022,10,01,03,03,13.10
2022,10,01,03,04,13.10
2022,10,01,03,05,13.20
2022,10,01,03,06,13.30
2022,10,01,03,07,13.30
2022,10,01,03,08,13.30
2022,10,01,03,09,13.30
2022,10,01,03,10,13.30
2022,10,01,03,11,13.30
2022,10,01,03,12,13.30
2022,10,01,03,13,13.30
2022,10,01,03,14,13.30
2022,10,01,03,15,13.30
2022,10,01,03,16,13.30
2022,10,01,03,17,13.40
2022,10,01,03,18,13.40
2022,10,01,03,19,13.40
2022,10,01,03,20,13.40
2022,10,01,03,21,13.40
2022,10,01,03,22,13.40
2022,10,01,03,23,13.40
2022,10,01,03,24,13.50
2022,10,01,03,25,13.60
2022,10,01,03,26,13.60
2022,10,01,03,27,13.60
2022,10,01,03,28,13.60
2022,10,01,03,29,13.60
2022,10,01,03,30,13.60
2022,10,01,03,31,13.60
2022,10,01,03,32,13.60
2022,10,01,03,33,13.70
2022,10,01,03,34,13.60
2022,10,01,03,35,13.60
2022,10,01,03,36,13.60
2022,10,01,03,37,13.60
2022,10,01,03,38,13.60
2022,10,01,03,39,13.60
2022,10,01,03,40,13.60
2022,10,01,03,41,13.60
2022,10,01,03,42,13.60
2022,10,01,03,43,13.60
2022,10,01,03,44,13.60
2022,10,01,03,45,13.60
2022,10,01,03,46,13.50
2022,10,01,03,47,13.50
2022,10,01,03,48,13.50
2022,10,01,03,49,13.60
2022,10,01,03,50,13.60
2022,10,01,03,51,13.60
2022,10,01,03,52,13.70
2022,10,01,03,53,13.80
2022,10,01,03,54,13.80
2022,10,01,03,55,13.80
2022,10,01,03,56,13.80
2022,10,01,03,57,13.80
2022,10,01,03,58,13.80
2022,10,01,03,59,13.80
2022,10,01,04,00,13.80
2022,10,01,04,01,13.80
2022,10,01,04,02,13.80
2022,10,01,04,03,13.80
2022,10,01,04,04,13.80
2022,10,01,04,05,13.70
2022,10,01,04,06,13.70
2022,10,01,04,07,13.70
2022,10,01,04,08,13.80
2022,10,01,04,09,13.80
2022,10,01,04,10,13.80
2022,10,01,04,11,13.70
2022,10,01,04,12,13.70
2022,10,01,04,13,13.70
2022,10,01,04,14,13.70
2022,10,01,04,15,13.70
2022,10,01,04,16,13.80
2022,10,01,04,17,13.80
2022,10,01,04,18,13.80
2022,10,01,04,19,13.80
2022,10,01,04,20,13.80
2022,10,01,04,21,13.80
2022,10,01,04,22,13.70
2022,10,01,04,23,13.70
2022,10,01,04,24,13.70
2022,10,01,04,25,13.70
2022,10,01,04,26,13.70
2022,10,01,04,27,13.80
2022,10,01,04,28,13.80
2022,10,01,04,29,13.70
2022,10,01,04,30,13.70
2022,10,01,04,31,13.70
2022,10,01,04,32,13.70
2022,10,01,04,33,13.70
2022,10,01,04,34,13.80
2022,10,01,04,35,13.80
2022,10,01,04,36,13.80
2022,10,01,04,37,13.80
2022,10,01,04,38,13.80
2022,10,01,04,39,13.90
2022,10,01,04,40,13.90
2022,10,01,04,41,13.90
2022,10,01,04,42,13.80
2022,10,01,04,43,13.90
2022,10,01,04,44,13.90
2022,10,01,04,45,13.90
2022,10,01,04,46,13.90
2022,10,01,04,47,13.90
2022,10,01,04,48,13.90
2022,10,01,04,49,13.90
2022,10,01,04,50,13.90
2022,10,01,04,51,13.90
2022,10,01,04,52,14.00
2022,10,01,04,53,14.10
2022,10,01,04,54,14.10
2022,10,01,04,55,14.10
2022,10,01,04,56,14.10
2022,10,01,04,57,14.10
2022,10,01,04,58,14.20
2022,10,01,04,59,14.30
2022,10,01,05,00,14.30
2022,10,01,05,01,14.30
2022,10,01,05,02,14.30
2022,10,01,05,03,14.20
2022,10,01,05,04,14.30
2022,10,01,05,05,14.30
2022,10,01,05,06,14.30
2022,10,01,05,07,14.30
2022,10,01,05,08,14.30
2022,10,01,05,09,14.30
2022,10,01,05,10,14.20
2022,10,01,05,11,14.30
2022,10,01,05,12,14.30
2022,10,01,05,13,14.30
2022,10,01,05,14,14.30
2022,10,01,05,15,14.30
2022,10,01,05,16,14.30
2022,10,01,05,17,14.20
2022,10,01,05,18,14.20
2022,10,01,05,19,14.20
2022,10,01,05,20,14.20
2022,10,01,05,21,14.20
2022,10,01,05,22,14.20
2022,10,01,05,23,14.20
2022,10,01,05,24,14.20
2022,10,01,05,25,14.10
2022,10,01,05,26,14.10
2022,10,01,05,27,14.10
2022,10,01,05,28,14.10
2022,10,01,05,29,14.10
2022,10,01,05,30,14.10
2022,10,01,05,31,14.20
2022,10,01,05,32,14.20
2022,10,01,05,33,14.20
2022,10,01,05,34,14.20
2022,10,01,05,35,14.20
2022,10,01,05,36,14.20
2022,10,01,05,37,14.30
2022,10,01,05,38,14.30
2022,10,01,05,39,14.30
2022,10,01,05,40,14.30
2022,10,01,05,41,14.20
2022,10,01,05,42,14.20
2022,10,01,05,43,14.20
2022,10,01,05,44,14.20
2022,10,01,05,45,14.20
2022,10,01,05,46,14.30
2022,10,01,05,47,14.30
2022,10,01,05,48,14.30
2022,10,01,05,49,14.30
2022,10,01,05,50,14.30
2022,10,01,05,51,14.30
2022,10,01,05,52,14.30
2022,10,01,05,53,14.30
2022,10,01,05,54,14.40
2022,10,01,05,55,14.40
2022,10,01,05,56,14.40
2022,10,01,05,57,14.40
2022,10,01,05,58,14.30
2022,10,01,05,59,14.30
2022,10,01,06,00,14.30
2022,10,01,06,01,14.30
2022,10,01,06,02,14.30
2022,10,01,06,03,14.30
2022,10,01,06,04,14.30
2022,10,01,06,05,14.30
2022,10,01,06,06,14.30
2022,10,01,06,07,14.30
2022,10,01,06,08,14.30
2022,10,01,06,09,14.30
2022,10,01,06,10,14.20
2022,10,01,06,11,14.20
2022,10,01,06,12,14.20
2022,10,01,06,13,14.10
2022,10,01,06,14,14.10
2022,10,01,06,15,14.10
2022,10,01,06,16,14.10
2022,10,01,06,17,14.10
2022,10,01,06,18,14.10
2022,10,01,06,19,14.00
2022,10,01,06,20,14.00
2022,10,01,06,21,14.00
2022,10,01,06,22,13.90
2022,10,01,06,23,13.90
2022,10,01,06,24,13.90
2022,10,01,06,25,13.90
2022,10,01,06,26,13.90
2022,10,01,06,27,13.90
2022,10,01,06,28,13.90
2022,10,01,06,29,13.90
2022,10,01,06,30,13.90
2022,10,01,06,31,13.90
2022,10,01,06,32,13.90
2022,10,01,06,33,13.90
2022,10,01,06,34,13.90
2022,10,01,06,35,13.80
2022,10,01,06,36,13.80
2022,10,01,06,37,13.80
2022,10,01,06,38,13.80
2022,10,01,06,39,13.90
2022,10,01,06,40,13.90
2022,10,01,06,41,13.90
2022,10,01,06,42,13.90
2022,10,01,06,43,13.90
2022,10,01,06,44,14.00
2022,10,01,06,45,14.00
2022,10,01,06,46,14.00
2022,10,01,06,47,14.00
2022,10,01,06,48,14.00
2022,10,01,06,49,13.90
2022,10,01,06,50,13.90
2022,10,01,06,51,13.90
2022,10,01,06,52,14.00
2022,10,01,06,53,14.00
2022,10,01,06,54,14.10
2022,10,01,06,55,14.10
2022,10,01,06,56,14.10
2022,10,01,06,57,14.10
2022,10,01,06,58,14.20
2022,10,01,06,59,14.20
2022,10,01,07,00,14.20
2022,10,01,07,01,14.20
2022,10,01,07,02,14.20
2022,10,01,07,03,14.20
2022,10,01,07,04,14.20
2022,10,01,07,05,14.20
2022,10,01,07,06,14.20
2022,10,01,07,07,14.20
2022,10,01,07,08,14.30
2022,10,01,07,09,14.30
2022,10,01,07,10,14.30
2022,10,01,07,11,14.30
2022,10,01,07,12,14.30
2022,10,01,07,13,14.40
2022,10,01,07,14,14.40
2022,10,01,07,15,14.30
2022,10,01,07,16,14.30
2022,10,01,07,17,14.30
2022,10,01,07,18,14.30
2022,10,01,07,19,14.30
2022,10,01,07,20,14.30
2022,10,01,07,21,14.30
2022,10,01,07,22,14.20
2022,10,01,07,23,14.20
2022,10,01,07,24,14.30
2022,10,01,07,25,14.30
2022,10,01,07,26,14.30
2022,10,01,07,27,14.30
2022,10,01,07,28,14.20
2022,10,01,07,29,14.20
2022,10,01,07,30,14.20
2022,10,01,07,31,14.20
2022,10,01,07,32,14.10
2022,10,01,07,33,14.10
2022,10,01,07,34,14.10
2022,10,01,07,35,14.10
2022,10,01,07,36,14.10
2022,10,01,07,37,14.00
2022,10,01,07,38,14.00
2022,10,01,07,39,14.00
2022,10,01,07,40,13.90
2022,10,01,07,41,13.90
2022,10,01,07,42,13.80
2022,10,01,07,43,13.80
2022,10,01,07,44,13.80
2022,10,01,07,45,13.80
2022,10,01,07,46,13.80
2022,10,01,07,47,13.70
2022,10,01,07,48,13.70
2022,10,01,07,49,13.70
2022,10,01,07,50,13.70
2022,10,01,07,51,13.70
2022,10,01,07,52,13.60
2022,10,01,07,53,13.60
2022,10,01,07,54,13.60
2022,10,01,07,55,13.60
2022,10,01,07,56,13.60
2022,10,01,07,57,13.60
2022,10,01,07,58,13.60
2022,10,01,07,59,13.60
2022,10,01,08,00,13.60
2022,10,01,08,01,13.60
2022,10,01,08,02,13.60
2022,10,01,08,03,13.60
2022,10,01,08,04,13.60
2022,10,01,08,05,13.60
2022,10,01,08,06,13.60
2022,10,01,08,07,13.60
2022,10,01,08,08,13.60
2022,10,01,08,09,13.60
2022,10,01,08,10,13.60
2022,10,01,08,11,13.60
2022,10,01,08,12,13.60
2022,10,01,08,13,13.60
2022,10,01,08,14,13.60
2022,10,01,08,15,13.70
2022,10,01,08,16,13.70
2022,10,01,08,17,13.70
2022,10,01,08,18,13.70
2022,10,01,08,19,13.80
2022,10,01,08,20,13.80
2022,10,01,08,21,13.80
2022,10,01,08,22,13.90
2022,10,01,08,23,13.90
2022,10,01,08,24,13.90
2022,10,01,08,25,14.00
2022,10,01,08,26,14.00
2022,10,01,08,27,14.00
2022,10,01,08,28,14.10
2022,10,01,08,29,14.10
2022,10,01,08,30,14.20
2022,10,01,08,31,14.20
2022,10,01,08,32,14.20
2022,10,01,08,33,14.30
2022,10,01,08,34,14.40
2022,10,01,08,35,14.40
2022,10,01,08,36,14.50
2022,10,01,08,37,14.50
2022,10,01,08,38,14.50
2022,10,01,08,39,14.60
2022,10,01,08,40,14.60
2022,10,01,08,41,14.70
2022,10,01,08,42,14.70
2022,10,01,08,43,14.70
2022,10,01,08,44,14.80
2022,10,01,08,45,14.80
2022,10,01,08,46,14.90
2022,10,01,08,47,14.90
2022,10,01,08,48,15.00
2022,10,01,08,49,15.00
2022,10,01,08,50,15.10
2022,10,01,08,51,15.10
2022,10,01,08,52,15.10
2022,10,01,08,53,15.20
2022,10,01,08,54,15.20
2022,10,01,08,55,15.20
2022,10,01,08,56,15.20
2022,10,01,08,57,15.30
2022,10,01,08,58,15.30
2022,10,01,08,59,15.30
2022,10,01,09,00,15.30
2022,10,01,09,01,15.40
2022,10,01,09,02,15.40
2022,10,01,09,03,15.40
2022,10,01,09,04,15.50
2022,10,01,09,05,15.50
2022,10,01,09,06,15.50
2022,10,01,09,07,15.60
2022,10,01,09,08,15.60
2022,10,01,09,09,15.60
2022,10,01,09,10,15.60
2022,10,01,09,11,15.70
2022,10,01,09,12,15.70
2022,10,01,09,13,15.70
2022,10,01,09,14,15.70
2022,10,01,09,15,15.70
2022,10,01,09,16,15.70
2022,10,01,09,17,15.70
2022,10,01,09,18,15.70
2022,10,01,09,19,15.70
2022,10,01,09,20,15.80
2022,10,01,09,21,15.80
2022,10,01,09,22,15.80
2022,10,01,09,23,15.80
2022,10,01,09,24,15.80
2022,10,01,09,25,15.80
2022,10,01,09,26,15.80
2022,10,01,09,27,15.80
2022,10,01,09,28,15.80
2022,10,01,09,29,15.90
2022,10,01,09,30,15.90
2022,10,01,09,31,15.90
2022,10,01,09,32,15.90
2022,10,01,09,33,15.90
2022,10,01,09,34,15.90
2022,10,01,09,35,15.90
2022,10,01,09,36,15.90
2022,10,01,09,37,15.90
2022,10,01,09,38,15.90
2022,10,01,09,39,15.90
2022,10,01,09,40,15.90
2022,10,01,09,41,16.00
2022,10,01,09,42,16.00
2022,10,01,09,43,16.00
2022,10,01,09,44,16.00
2022,10,01,09,45,16.10
2022,10,01,09,46,16.10
2022,10,01,09,47,16.10
2022,10,01,09,48,16.10
2022,10,01,09,49,16.10
2022,10,01,09,50,16.10
2022,10,01,09,51,16.10
2022,10,01,09,52,16.20
2022,10,01,09,53,16.20
2022,10,01,09,54,16.20
2022,10,01,09,55,16.20
2022,10,01,09,56,16.20
2022,10,01,09,57,16.20
2022,10,01,09,58,16.20
2022,10,01,09,59,16.20
2022,10,01,10,00,16.20
2022,10,01,10,01,16.20
2022,10,01,10,02,16.30
2022,10,01,10,03,16.30
2022,10,01,10,04,16.30
2022,10,01,10,05,16.30
2022,10,01,10,06,16.30
2022,10,01,10,07,16.30
2022,10,01,10,08,16.30
2022,10,01,10,09,16.30
2022,10,01,10,10,16.40
2022,10,01,10,11,16.40
2022,10,01,10,12,16.40
2022,10,01,10,13,16.40
2022,10,01,10,14,16.40
2022,10,01,10,15,16.40
2022,10,01,10,16,16.40
2022,10,01,10,17,16.40
2022,10,01,10,18,16.50
2022,10,01,10,19,16.50
2022,10,01,10,20,16.50
2022,10,01,10,21,16.50
2022,10,01,10,22,16.50
2022,10,01,10,23,16.50
2022,10,01,10,24,16.50
2022,10,01,10,25,16.60
2022,10,01,10,26,16.60
2022,10,01,10,27,16.60
2022,10,01,10,28,16.60
2022,10,01,10,29,16.60
2022,10,01,10,30,16.60
2022,10,01,10,31,16.60
2022,10,01,10,32,16.60
2022,10,01,10,33,16.60
2022,10,01,10,34,16.50
2022,10,01,10,35,16.50
2022,10,01,10,36,16.50
2022,10,01,10,37,16.40
2022,10,01,10,38,16.40
2022,10,01,10,39,16.40
2022,10,01,10,40,16.40
2022,10,01,10,41,16.40
2022,10,01,10,42,16.40
2022,10,01,10,43,16.40
2022,10,01,10,44,16.40
2022,10,01,10,45,16.40
2022,10,01,10,46,16.40
2022,10,01,10,47,16.40
2022,10,01,10,48,16.40
2022,10,01,10,49,16.40
2022,10,01,10,50,16.40
2022,10,01,10,51,16.40
2022,10,01,10,52,16.40
2022,10,01,10,53,16.40
2022,10,01,10,54,16.40
2022,10,01,10,55,16.40
2022,10,01,10,56,16.40
2022,10,01,10,57,16.40
2022,10,01,10,58,16.40
2022,10,01,10,59,16.40
2022,10,01,11,00,16.40
2022,10,01,11,01,16.40
2022,10,01,11,02,16.40
2022,10,01,11,03,16.40
2022,10,01,11,04,16.40
2022,10,01,11,05,16.40
2022,10,01,11,06,16.40
2022,10,01,11,07,16.40
2022,10,01,11,08,16.40
2022,10,01,11,09,16.40
2022,10,01,11,10,16.40
2022,10,01,11,11,16.40
2022,10,01,11,12,16.40
2022,10,01,11,13,16.40
2022,10,01,11,14,16.40
2022,10,01,11,15,16.40
2022,10,01,11,16,16.40
2022,10,01,11,17,16.40
2022,10,01,11,18,16.30
2022,10,01,11,19,16.30
2022,10,01,11,20,16.40
2022,10,01,11,21,16.30
2022,10,01,11,22,16.30
2022,10,01,11,23,16.30
2022,10,01,11,24,16.30
2022,10,01,11,25,16.30
2022,10,01,11,26,16.30
2022,10,01,11,27,16.30
2022,10,01,11,28,16.30
2022,10,01,11,29,16.40
2022,10,01,11,30,16.40
2022,10,01,11,31,16.40
2022,10,01,11,32,16.40
2022,10,01,11,33,16.40
2022,10,01,11,34,16.40
2022,10,01,11,35,16.40
2022,10,01,11,36,16.40
2022,10,01,11,37,16.40
2022,10,01,11,38,16.40
2022,10,01,11,39,16.40
2022,10,01,11,40,16.40
2022,10,01,11,41,16.40
2022,10,01,11,42,16.40
2022,10,01,11,43,16.40
2022,10,01,11,44,16.40
2022,10,01,11,45,16.50
2022,10,01,11,46,16.50
2022,10,01,11,47,16.40
2022,10,01,11,48,16.50
2022,10,01,11,49,16.50
2022,10,01,11,50,16.50
2022,10,01,11,51,16.50
2022,10,01,11,52,16.50
2022,10,01,11,53,16.50
2022,10,01,11,54,16.50
2022,10,01,11,55,16.50
2022,10,01,11,56,16.50
2022,10,01,11,57,16.50
2022,10,01,11,58,16.50
2022,10,01,11,59,16.50
2022,10,01,12,00,16.50
2022,10,01,12,01,16.50
2022,10,01,12,02,16.50
2022,10,01,12,03,16.50
2022,10,01,12,04,16.50
2022,10,01,12,05,16.50
2022,10,01,12,06,16.50
2022,10,01,12,07,16.50
2022,10,01,12,08,16.50
2022,10,01,12,09,16.50
2022,10,01,12,10,16.60
2022,10,01,12,11,16.60
2022,10,01,12,12,16.60
2022,10,01,12,13,16.60
2022,10,01,12,14,16.60
2022,10,01,12,15,16.60
2022,10,01,12,16,16.60
2022,10,01,12,17,16.60
2022,10,01,12,18,16.60
2022,10,01,12,19,16.60
2022,10,01,12,20,16.70
2022,10,01,12,21,16.70
2022,10,01,12,22,16.70
2022,10,01,12,23,16.70
2022,10,01,12,24,16.70
2022,10,01,12,25,16.70
2022,10,01,12,26,16.70
2022,10,01,12,27,16.70
2022,10,01,12,28,16.70
2022,10,01,12,29,16.80
2022,10,01,12,30,16.80
2022,10,01,12,31,16.80
2022,10,01,12,32,16.80
2022,10,01,12,33,16.80
2022,10,01,12,34,16.80
2022,10,01,12,35,16.80
2022,10,01,12,36,16.80
2022,10,01,12,37,16.80
2022,10,01,12,38,16.90
2022,10,01,12,39,16.90
2022,10,01,12,40,16.90
2022,10,01,12,41,17.00
2022,10,01,12,42,17.00
2022,10,01,12,43,17.00
2022,10,01,12,44,17.10
2022,10,01,12,45,17.10
2022,10,01,12,46,17.20
2022,10,01,12,47,17.20
2022,10,01,12,48,17.20
2022,10,01,12,49,17.30
2022,10,01,12,50,17.30
2022,10,01,12,51,17.30
2022,10,01,12,52,17.30
2022,10,01,12,53,17.30
2022,10,01,12,54,17.40
2022,10,01,12,55,17.40
2022,10,01,12,56,17.40
2022,10,01,12,57,17.40
2022,10,01,12,58,17.50
2022,10,01,12,59,17.50
2022,10,01,13,00,17.60
2022,10,01,13,01,17.60
2022,10,01,13,02,17.70
2022,10,01,13,03,17.70
2022,10,01,13,04,17.70
2022,10,01,13,05,17.80
2022,10,01,13,06,17.80
2022,10,01,13,07,17.80
2022,10,01,13,08,17.80
2022,10,01,13,09,17.80
2022,10,01,13,10,17.80
2022,10,01,13,11,17.80
2022,10,01,13,12,17.90
2022,10,01,13,13,17.90
2022,10,01,13,14,17.90
2022,10,01,13,15,18.00
2022,10,01,13,16,18.00
2022,10,01,13,17,18.10
2022,10,01,13,18,18.10
2022,10,01,13,19,18.10
2022,10,01,13,20,18.10
2022,10,01,13,21,18.10
2022,10,01,13,22,18.10
2022,10,01,13,23,18.10
2022,10,01,13,24,18.10
2022,10,01,13,25,18.10
2022,10,01,13,26,18.10
2022,10,01,13,27,18.10
2022,10,01,13,28,18.10
2022,10,01,13,29,18.10
2022,10,01,13,30,18.10
2022,10,01,13,31,18.10
2022,10,01,13,32,18.10
2022,10,01,13,33,18.00
2022,10,01,13,34,18.00
2022,10,01,13,35,18.00
2022,10,01,13,36,18.00
2022,10,01,13,37,18.00
2022,10,01,13,38,18.10
2022,10,01,13,39,18.10
2022,10,01,13,40,18.10
2022,10,01,13,41,18.10
2022,10,01,13,42,18.10
2022,10,01,13,43,18.10
2022,10,01,13,44,18.10
2022,10,01,13,45,18.10
2022,10,01,13,46,18.10
2022,10,01,13,47,18.10
2022,10,01,13,48,18.10
2022,10,01,13,49,18.10
2022,10,01,13,50,18.20
2022,10,01,13,51,18.10
2022,10,01,13,52,18.10
2022,10,01,13,53,18.10
2022,10,01,13,54,18.10
2022,10,01,13,55,18.10
2022,10,01,13,56,18.10
2022,10,01,13,57,18.10
2022,10,01,13,58,18.10
2022,10,01,13,59,18.10
2022,10,01,14,00,18.10
2022,10,01,14,01,18.10
2022,10,01,14,02,18.10
2022,10,01,14,03,18.20
2022,10,01,14,04,18.20
2022,10,01,14,05,18.20
2022,10,01,14,06,18.20
2022,10,01,14,07,18.20
2022,10,01,14,08,18.20
2022,10,01,14,09,18.10
2022,10,01,14,10,18.20
2022,10,01,14,11,18.20
2022,10,01,14,12,18.20
2022,10,01,14,13,18.20
2022,10,01,14,14,18.20
2022,10,01,14,15,18.20
2022,10,01,14,16,18.20
2022,10,01,14,17,18.30
2022,10,01,14,18,18.30
2022,10,01,14,19,18.30
2022,10,01,14,20,18.30
2022,10,01,14,21,18.30
2022,10,01,14,22,18.30
2022,10,01,14,23,18.40
2022,10,01,14,24,18.40
2022,10,01,14,25,18.40
2022,10,01,14,26,18.50
2022,10,01,14,27,18.50
2022,10,01,14,28,18.60
2022,10,01,14,29,18.60
2022,10,01,14,30,18.70
2022,10,01,14,31,18.80
2022,10,01,14,32,18.80
2022,10,01,14,33,18.90
2022,10,01,14,34,18.90
2022,10,01,14,35,18.90
2022,10,01,14,36,19.00
2022,10,01,14,37,19.10
2022,10,01,14,38,19.20
2022,10,01,14,39,19.20
2022,10,01,14,40,19.30
2022,10,01,14,41,19.30
2022,10,01,14,42,19.30
2022,10,01,14,43,19.30
2022,10,01,14,44,19.30
2022,10,01,14,45,19.40
2022,10,01,14,46,19.40
2022,10,01,14,47,19.50
2022,10,01,14,48,19.50
2022,10,01,14,49,19.60
2022,10,01,14,50,19.60
2022,10,01,14,51,19.60
2022,10,01,14,52,19.60
2022,10,01,14,53,19.60
2022,10,01,14,54,19.50
2022,10,01,14,55,19.50
2022,10,01,14,56,19.50
2022,10,01,14,57,19.50
2022,10,01,14,58,19.50
2022,10,01,14,59,19.40
2022,10,01,15,00,19.40
2022,10,01,15,01,19.40
2022,10,01,15,02,19.40
2022,10,01,15,03,19.50
2022,10,01,15,04,19.50
2022,10,01,15,05,19.50
2022,10,01,15,06,19.50
2022,10,01,15,07,19.50
2022,10,01,15,08,19.50
2022,10,01,15,09,19.50
2022,10,01,15,10,19.50
2022,10,01,15,11,19.40
2022,10,01,15,12,19.40
2022,10,01,15,13,19.40
2022,10,01,15,14,19.30
2022,10,01,15,15,19.30
2022,10,01,15,16,19.40
2022,10,01,15,17,19.40
2022,10,01,15,18,19.40
2022,10,01,15,19,19.40
2022,10,01,15,20,19.40
2022,10,01,15,21,19.40
2022,10,01,15,22,19.50
2022,10,01,15,23,19.40
2022,10,01,15,24,19.40
2022,10,01,15,25,19.50
2022,10,01,15,26,19.50
2022,10,01,15,27,19.50
2022,10,01,15,28,19.50
2022,10,01,15,29,19.60
2022,10,01,15,30,19.60
2022,10,01,15,31,19.60
2022,10,01,15,32,19.60
2022,10,01,15,33,19.70
2022,10,01,15,34,19.70
2022,10,01,15,35,19.70
2022,10,01,15,36,19.70
2022,10,01,15,37,19.70
2022,10,01,15,38,19.80
2022,10,01,15,39,19.80
2022,10,01,15,40,19.80
2022,10,01,15,41,19.80
2022,10,01,15,42,19.80
2022,10,01,15,43,19.80
2022,10,01,15,44,19.80
2022,10,01,15,45,19.80
2022,10,01,15,46,19.80
2022,10,01,15,47,19.80
2022,10,01,15,48,19.80
2022,10,01,15,49,19.80
2022,10,01,15,50,19.90
2022,10,01,15,51,19.90
2022,10,01,15,52,19.90
2022,10,01,15,53,20.00
2022,10,01,15,54,20.10
2022,10,01,15,55,20.10
2022,10,01,15,56,20.20
2022,10,01,15,57,20.20
2022,10,01,15,58,20.20
2022,10,01,15,59,20.30
2022,10,01,16,00,20.30
2022,10,01,16,01,20.30
2022,10,01,16,02,20.40
2022,10,01,16,03,20.40
2022,10,01,16,04,20.40
2022,10,01,16,05,20.40
2022,10,01,16,06,20.50
2022,10,01,16,07,20.50
2022,10,01,16,08,20.50
2022,10,01,16,09,20.40
2022,10,01,16,10,20.40
2022,10,01,16,11,20.40
2022,10,01,16,12,20.40
2022,10,01,16,13,20.50
2022,10,01,16,14,20.50
2022,10,01,16,15,20.50
2022,10,01,16,16,20.60
2022,10,01,16,17,20.60
2022,10,01,16,18,20.60
2022,10,01,16,19,20.70
2022,10,01,16,20,20.70
2022,10,01,16,21,20.70
2022,10,01,16,22,20.70
2022,10,01,16,23,20.70
2022,10,01,16,24,20.70
2022,10,01,16,25,20.70
2022,10,01,16,26,20.70
2022,10,01,16,27,20.70
2022,10,01,16,28,20.70
2022,10,01,16,29,20.80
2022,10,01,16,30,20.80
2022,10,01,16,31,20.80
2022,10,01,16,32,20.80
2022,10,01,16,33,20.80
2022,10,01,16,34,20.80
2022,10,01,16,35,20.80
2022,10,01,16,36,20.70
2022,10,01,16,37,20.70
2022,10,01,16,38,20.70
2022,10,01,16,39,20.60
2022,10,01,16,40,20.50
2022,10,01,16,41,20.40
2022,10,01,16,42,20.30
2022,10,01,16,43,20.20
2022,10,01,16,44,20.10
2022,10,01,16,45,20.00
2022,10,01,16,46,19.80
2022,10,01,16,47,19.80
2022,10,01,16,48,19.60
2022,10,01,16,49,19.50
2022,10,01,16,50,19.40
2022,10,01,16,51,19.30
2022,10,01,16,52,19.10
2022,10,01,16,53,19.00
2022,10,01,16,54,18.80
2022,10,01,16,55,18.70
2022,10,01,16,56,18.60
2022,10,01,16,57,18.50
2022,10,01,16,58,18.40
2022,10,01,16,59,18.30
2022,10,01,17,00,18.20
2022,10,01,17,01,18.20
2022,10,01,17,02,18.10
2022,10,01,17,03,18.00
2022,10,01,17,04,18.00
2022,10,01,17,05,17.90
2022,10,01,17,06,17.90
2022,10,01,17,07,17.90
2022,10,01,17,08,17.90
2022,10,01,17,09,17.90
2022,10,01,17,10,17.90
2022,10,01,17,11,17.90
2022,10,01,17,12,17.80
2022,10,01,17,13,17.80
2022,10,01,17,14,17.80
2022,10,01,17,15,17.80
2022,10,01,17,16,17.80
2022,10,01,17,17,17.80
2022,10,01,17,18,17.80
2022,10,01,17,19,17.70